TimePDT,TemperatureF,Dew PointF,Humidity,Sea Level PressureIn,VisibilityMPH,Wind Direction,Wind SpeedMPH,Gust SpeedMPH,PrecipitationIn,Events,Conditions,WindDirDegrees,DateUTC
1:53 AM,52.0,46.0,80,30.09,10.0,North,3.5,-,N/A,,Clear,360,2012-10-09 08:53:00
2:53 AM,51.1,46.0,83,30.09,10.0,Calm,Calm,-,N/A,,Clear,0,2012-10-09 09:53:00
3:53 AM,48.9,45.0,86,30.10,10.0,Calm,Calm,-,N/A,,Partly Cloudy,0,2012-10-09 10:53:00
4:14 AM,48.2,44.6,87,30.11,10.0,Calm,Calm,-,N/A,,Mostly Cloudy,0,2012-10-09 11:14:00
4:53 AM,46.9,44.1,90,30.11,10.0,Calm,Calm,-,N/A,,Overcast,0,2012-10-09 11:53:00
5:53 AM,50.0,46.9,89,30.11,7.0,NNW,3.5,-,N/A,,Overcast,330,2012-10-09 12:53:00
6:53 AM,50.0,46.9,89,30.12,8.0,Calm,Calm,-,N/A,,Overcast,0,2012-10-09 13:53:00
7:53 AM,50.0,46.9,89,30.12,7.0,Calm,Calm,-,N/A,,Overcast,0,2012-10-09 14:53:00
8:53 AM,50.0,46.9,89,30.13,6.0,East,3.5,-,N/A,,Overcast,100,2012-10-09 15:53:00
9:53 AM,51.1,46.0,83,30.14,6.0,Calm,Calm,-,N/A,,Haze,0,2012-10-09 16:53:00
10:21 AM,51.8,46.4,82,30.13,7.0,Calm,Calm,-,N/A,,Overcast,0,2012-10-09 17:21:00
10:53 AM,52.0,46.9,83,30.12,7.0,NW,3.5,-,N/A,,Overcast,320,2012-10-09 17:53:00
11:46 AM,53.6,46.4,77,30.11,7.0,West,4.6,-,N/A,,Partly Cloudy,280,2012-10-09 18:46:00
11:53 AM,54.0,46.9,77,30.11,7.0,WNW,4.6,-,N/A,,Partly Cloudy,300,2012-10-09 18:53:00
12:53 PM,57.9,46.0,65,30.09,10.0,West,5.8,-,N/A,,Clear,270,2012-10-09 19:53:00
1:53 PM,61.0,45.0,56,30.06,10.0,WNW,5.8,-,N/A,,Clear,300,2012-10-09 20:53:00
2:53 PM,64.9,43.0,45,30.04,10.0,Variable,3.5,-,N/A,,Partly Cloudy,0,2012-10-09 21:53:00
3:53 PM,66.0,46.0,48,30.01,10.0,West,5.8,-,N/A,,Partly Cloudy,270,2012-10-09 22:53:00
4:53 PM,68.0,46.0,45,30.00,10.0,WNW,4.6,-,N/A,,Partly Cloudy,300,2012-10-09 23:53:00
5:53 PM,66.9,48.0,51,30.00,10.0,NW,5.8,-,N/A,,Partly Cloudy,310,2012-10-10 00:53:00
6:53 PM,64.0,45.0,50,30.00,10.0,North,3.5,-,N/A,,Partly Cloudy,350,2012-10-10 01:53:00
7:53 PM,61.0,46.9,60,30.01,10.0,NW,4.6,-,N/A,,Clear,320,2012-10-10 02:53:00
8:53 PM,57.0,46.0,67,30.01,10.0,Calm,Calm,-,N/A,,Clear,0,2012-10-10 03:53:00
9:53 PM,55.9,50.0,80,30.01,10.0,Calm,Calm,-,N/A,,Clear,0,2012-10-10 04:53:00
10:53 PM,55.0,48.0,77,30.02,10.0,Calm,Calm,-,N/A,,Clear,0,2012-10-10 05:53:00
11:53 PM,52.0,46.9,83,30.02,10.0,Calm,Calm,-,N/A,,Clear,0,2012-10-10 06:53:00